Weather in Blagoveshchenka

Kazakhstan     54°22′08″N   66°58′23″E
temp.,
°C
wind,
m/s
gust,
m/s
humid.,
%
clouds,
%
prec.,
mm/h
press.,
hPa
HPBL,
m
6 may, thu
thu600:00+19s717310 0.0 1000332
03:00+17sw614365 0.0 999319
06:00+11wnw814645 0.0 1003661
09:00+12wnw810530 0.0 1005871
12:00+14wnw810380 0.0 10081410
15:00+16wnw810322 0.0 10091886
18:00+16wnw810325 0.0 10112185
21:00+13nw610405 0.0 1013411
7 may, fri
fri700:00+10wnw410475 0.0 1016317
03:00+8wnw410540 0.0 1018276
06:00+6wnw38590 0.0 1020165
09:00+10wnw46460 0.0 1022511
12:00+14wnw44320 0.0 10221235
15:00+17wnw34263 0.0 10221476
18:00+18nw22253 0.0 10211479
21:00+15sse11341 0.0 102111
8 may, sat
sat800:00+13sse2237100 0.0 102214
03:00+11se22416 0.0 102112
06:00+10se3346100 0.0 102122
09:00+14se3440100 0.0 1021212
12:00+18ese3428100 0.0 10201082
15:00+20e3324100 0.0 10182129
18:00+20e2323100 0.0 10172203
21:00+17nne3434100 0.0 101665
9 may, sun
sun900:00+15n3536100 0.0 101593
03:00+15ne3543100 0.0 101489
06:00+14ne3850100 0.0 1014228
09:00+17ne71242100 0.0 10131027
12:00+18ene71038100 0.0 10131054
15:00+19ene71043100 0.0 10121647
18:00+19ene7114195 0.0 10121613
21:00+15ene7155374 0.0 1013789
10 may, mon
mon1000:00+14ne71356100 0.0 1013839
03:00+12ene61377100 0.2 1014752
06:00+12ne81387100 1.9 1016825
09:00+14ne6136397 0.2 10171220
12:00+19ene7124179 0.2 10182012
15:00+21ene7103188 0.0 10182592
18:00+22ene4828100 0.0 10182698
21:00+18nne354221 0.0 102083